This is the latest recevied weather packets stored in our database for station/object KE2HEH. If no packets are shown the sender has not sent any weather packets the latest 10 day(s).
| Time | Temp. | Humidity | Pressure | Rain* | Wind** | Luminosity | Snow |
|---|---|---|---|---|---|---|---|
| 1777522595 | 8.89° C | 96% | 1010.2 hPa | 4.32 mm | - | 0 W/m² | - |
| 1777522292 | 8.89° C | 95% | 1010.3 hPa | 3.05 mm | - | 0 W/m² | - |
| 1777521988 | 8.33° C | 96% | 1010.5 hPa | 6.1 mm | - | 0 W/m² | - |
| 1777521685 | 8.33° C | 95% | 1010.4 hPa | 6.1 mm | - | 0 W/m² | - |
| 1777521382 | 8.89° C | 95% | 1010.8 hPa | 7.87 mm | - | 0 W/m² | - |
| 1777521079 | 8.89° C | 96% | 1011 hPa | 9.65 mm | - | 0 W/m² | - |
| 1777520776 | 8.89° C | 96% | 1011.1 hPa | 6.1 mm | - | 0 W/m² | - |
| 1777520473 | 8.89° C | 95% | 1011.7 hPa | 4.83 mm | - | 0 W/m² | - |
| 1777520170 | 8.89° C | 95% | 1011.6 hPa | 4.32 mm | - | 0 W/m² | - |
| 1777519868 | 9.44° C | 95% | 1011.7 hPa | 3.05 mm | - | 0 W/m² | - |
| 1777519565 | 9.44° C | 95% | 1012.1 hPa | 1.78 mm | - | 0 W/m² | - |
| 1777519261 | 9.44° C | 96% | 1012.2 hPa | 1.27 mm | - | 0 W/m² | - |
| 1777518957 | 9.44° C | 95% | 1012.1 hPa | 3.05 mm | - | 0 W/m² | - |
| 1777518653 | 9.44° C | 95% | 1012.4 hPa | 1.78 mm | - | 0 W/m² | - |
| 1777518350 | 9.44° C | 95% | 1012.2 hPa | 1.27 mm | - | 0 W/m² | - |
| 1777518046 | 9.44° C | 95% | 1012.1 hPa | 3.05 mm | - | 0 W/m² | - |
| 1777517742 | 9.44° C | 95% | 1012 hPa | 1.78 mm | - | 0 W/m² | - |
| 1777517438 | 9.44° C | 95% | 1012.2 hPa | 0 mm | - | 0 W/m² | - |
| 1777517138 | 9.44° C | 95% | 1012.1 hPa | 0 mm | - | 0 W/m² | - |
| 1777516835 | 9.44° C | 95% | 1012.2 hPa | 0 mm | - | 0 W/m² | - |
| 1777516531 | 9.44° C | 95% | 1012.2 hPa | 1.78 mm | - | 0 W/m² | - |
| 1777516227 | 9.44° C | 95% | 1012.2 hPa | 1.78 mm | - | 0 W/m² | - |
| 1777515924 | 9.44° C | 95% | 1012 hPa | 0 mm | - | 0 W/m² | - |
| 1777515620 | 9.44° C | 95% | 1012.2 hPa | 0 mm | - | 0 W/m² | - |
| 1777515318 | 9.44° C | 95% | 1012.1 hPa | 0 mm | - | 0 W/m² | - |
* Rain latest hour (hover to see other rain measurements)
** Current wind speed in m/s (hover to see current wind gust speed)